{"data":{"norad_id":67982,"epoch":"2026-09-19T14:59:50.019936Z","epoch_age_seconds":135156,"freshness":"FRESH","line1":"1 67982U 26038X   26262.62488449  .00011612  00000+0  36142-3 0  9993","line2":"2 67982  97.2843 271.0418 0001316  82.6970 277.4422 15.33448864 32967","mean_motion":15.33448864,"eccentricity":0.0001316,"inclination_deg":97.2843,"raan_deg":271.0418,"arg_perigee_deg":82.697,"mean_anomaly_deg":277.4422,"bstar":0.00036142,"rev_number":3296,"period_min":93.905968031028,"perigee_km":464.63105115881,"apogee_km":466.43230475485,"semimajor_km":6843.6686779568,"source":"CELESTRAK","updated_at":"2026-09-20T09:00:43.733530Z"}}